Location: Igri�s
(42.2144°N, 0.4320°W)
Time: 18:17:29
(UTC+00:00)

Cosmos 2360 Rocket - Pass Details

Date: 13 August 2020
Orbit: 833 x 845 km, 71.0° (Epoch: 18 September)

Event Time Altitude Azimuth Distance (km) Brightness Sun altitude
Rises 20:53:31 0° 345° (NNW) 3,414 6.3 -18.2°
Reaches altitude 10° 20:56:34 10° 1° (N) 2,474 5.2 -18.6°
Maximum altitude 21:00:54 22° 51° (NE) 1,770 3.8 -19.2°
Enters shadow 21:02:54 18° 79° (E) 1,939 3.7 -19.5°
